www.pogodaiklimat.ru

Погода и климат >> Архив погоды >> Мексика >> Altar Son


ПОГОДА в Altar Son

  • Прогноз погоды в Altar Son
  • Монитор погоды в Altar Son
  • Климат города

АРХИВ ПОГОДЫ в Altar Son

Время (UTC), дата Ветер
(напр.,м/с)
 
Видим.   Явления Облачность Т
(С)
Тd
(С)
f
(%)
Тe
(С)
Тes
(С)
Комфортность P
(гПа)
Po
(гПа)
Тmin
(С)
Tmax
(С)
R
(мм)
R24
(мм)
S
(см)
00 14.01 ЮЗ 1 30 км ясно +28.0 +8.8 30 +28 +28 жарко 1017.0 970.6 +7.0 +28.5
03 14.01 С 1 20 км ясно +18.0 +2.0 34 +19 +19 1016.0 970.1
12 15.01 СВ 1 20 км ясно +8.8 -0.1 54 +9 +9 1017.3 969.9 +8.6 +28.5
15 15.01 СВ 1 30 км ясно +10.0 +0.2 51 +10 +11 1018.5 970.9
18 15.01 ЮЗ 1 30 км ясно +19.4 -0.1 27 +21 +29 комфорт 1017.5 970.7 +7.4 +19.5
21 15.01 З 2 30 км ясно +24.4 +0.2 20 +23 +30 комфорт 1015.3 969.1
00 16.01 З 2 30 км ясно +24.8 +0.3 20 +23 +24 комфорт 1014.4 968.5 +7.4 +25.5
03 16.01 Ю 1 10 км ясно +18.2 +3.0 36 +19 +19 1014.9 969.0
12 16.01 СВ 1 20 км ясно +10.0 +1.0 54 +10 +10 1016.6 969.4 +9.8 +25.5
15 16.01 СВ 1 30 км ясно +10.2 -0.6 47 +10 +11 1017.6 970.4
18 16.01 СВ 1 30 км ясно +18.6 +5.9 43 +20 +28 1017.9 971.1 +8.6 +18.8
21 16.01 ЮЗ 1 30 км 5/0
[Ac trans]
+25.8 +2.4 22 +25 +30 комфорт 1015.2 969.0
00 17.01 З 1 30 км 5/0 2000 м
[Ac trans]
+25.0 +2.1 22 +24 +24 комфорт 1014.7 968.8 +8.6 +26.5
03 17.01 З 1 10 км ясно +19.4 -0.2 27 +21 +21 комфорт 1016.2 970.3
15 17.01 СВ 1 30 км ясно +7.6 -1.0 54 +7 +8 1018.8 971.1
18 17.01 Ю 1 30 км ясно +18.8 +2.1 33 +20 +29 1018.8 971.8 +7.4 +19.0
21 17.01 С 1 30 км ясно +25.0 +2.9 24 +24 +32 комфорт 1016.8 970.4
00 18.01 З 2 30 км ясно +25.4 -1.4 17 +24 +24 комфорт 1014.8 968.8 +7.4 +26.5
03 18.01 ЮЗ 4 10 км ясно +18.5 +1.0 31 +18 +18 1016.3 970.3
12 18.01 СВ 1 20 км ясно +8.0 -2.3 48 +8 +8 1016.9 969.4 +7.8 +26.5
15 18.01 В 1 30 км ясно +7.8 -2.3 49 +8 +8 1017.9 970.3
18 18.01 СВ 1 30 км ясно +18.8 +2.8 34 +20 +29 1018.2 971.2 +7.5 +19.0
21 18.01 ЮЗ 1 30 км ясно +26.2 -0.5 17 +24 +33 комфорт 1015.4 969.1
00 19.01 ЮЗ 1 30 км ясно +27.2 +2.5 20 +26 +26 жарко 1013.9 968.1 +7.5 +27.5
03 19.01 Ю 1 10 км ясно +19.0 +1.2 30 +20 +20 1014.1 968.3
15 19.01 СВ 1 30 км ясно +8.0 +3.3 72 +7 +8 1017.0 969.2
18 19.01 В 1 30 км ясно +16.0 +8.3 60 +17 +26 1016.0 969.0 +6.0 +16.5
21 19.01 ЮВ 1 30 км ясно +25.4 +10.7 40 +24 +32 комфорт 1015.0 968.5
00 20.01 Ю 1 30 км ясно +28.0 +8.8 30 +28 +28 жарко 1014.0 968.0 +6.0 +28.5
03 20.01 З 1 20 км ясно +19.0 +1.2 30 +20 +20 1013.0 967.3
15 20.01 В 1 30 км ясно +12.0 +3.1 54 +12 +13 1011.0 964.4
18 20.01 Ю 1 30 км ясно +18.5 +1.0 31 +20 +29 1010.0 964.0 +11.0 +19.0
21 20.01 ЮЗ 1 30 км ясно +19.0 +1.2 30 +20 +29 1009.0 963.4

 

Местоположение метеостанции Altar Son (Мексика): широта 30.71 долгота -111.84 высота над уровнем моря 397 м.

В архиве по умолчанию представлена погода в Altar Son за последнюю неделю. Архивные данные за месяц целиком и за предыдущие месяцы, начиная с января 2011 года, Вы можете получить, выбрав интересующий диапазон дат из раскрывающегося списка и нажав кнопку "Ввод!".

Внимание! Время в таблицах - всемирное. Для получения местного времени необходимо прибавить поправку, которая в Altar Son равна -8 ч.

Смотрите также архив погоды в соседних городах и на ближайших метеорологических станциях:

Погода в Puerto Penasco (Мексика) (176 км)
Погода в Hermosillo (Мексика) (196 км)
Погода в Hermosillo la Magna (Мексика) (201 км)
Погода в Pilares de Nacoz (Мексика) (210 км)
Погода в San Felipe (Мексика) (285 км)
Погода в Guaymas (Мексика) (324 км)
Погода в Empalme (Мексика) (326 км)
Погода в Ejido Nuevo Leon (Мексика) (362 км)
Погода в Nueva Casas Grandes (Мексика) (379 км)
Погода в Santa Rosalia (Мексика) (384 км)

Пояснения к столбцам:

Ветер - указаны скорость ветра в м/с - средняя за 10 мин, порывы в срок и между сроками (в фигурных скобках) и направление, откуда дует ветер: С - северный, СВ - северо-восточный, В - восточный, ЮВ - юго-восточный, Ю - южный, ЮЗ - юго-западный, З - западный, СЗ - северо-западный.
Видимость - горизонтальная дальность видимости в метрах или километрах. При видимости от 1 до 10 км при отсутствии осадков обычно наблюдается дымка, при ухудшении видимости до 1 км и менее - туман. В сухую погоду видимость может ухудшаться дымом, пылью или мглою.
Явления - указаны атмосферные явления, наблюдавшиеся в срок или в последний час перед сроком; фигурными скобками обозначены явления, наблюдавшиеся между сроками (за 1-3 часа до срока); квадратными скобками обозначены град или гололедные отложения с указанием их диаметра в мм.
Облачность - указаны через наклонную черту общая и нижняя облачность в баллах и высота нижней границы облаков в метрах; квадратными скобками обозначены формы облаков: Ci - перистые, Cs - перисто-слоистые, Cc - перисто-кучевые, Ac - высококучевые, As - высокослоистые, Sc - слоисто-кучевые, Ns - слоисто-дождевые, Cu - кучевые, Cb - кучево-дождевые. Подробнее классификацию облаков см. в Атласе облаков (PDF).
T - Температура воздуха - температура, измеренная на высоте 2 м над землей.
Td - Температура точки росы - температура, при понижении до которой содержащийся в воздухе водяной пар достигнет насыщения.
f - Относительная влажность воздуха - влажноcть воздуха, измеренная на высоте 2 м над землей.
Te - Эффективная температура - температура, которую ощущает одетый по сезону человек в тени. Характеристика душности погоды. При расчете учитывается влияние влажности воздуха и скорости ветра на теплоощущения человека.
Tes - Эффективная температура на солнце - температура, которую ощущает человек, с поправкой на солнечный нагрев. Характеристика знойности погоды. Зависит от высоты солнца над горизонтом, облачности и скорости ветра. Ночью, в пасмурную погоду, а также при ветре 12 м/с и более поправка равна нулю.
P - Атмосферное давление - приведенное к уровню моря атмосферное давление.
Po - Атмосферное давление - измеренное на уровне метеостанции атмосферное давление.
Tmin - Минимальная температура - минимум температуры воздуха на высоте 2 м над землей.
Tmax - Максимальная температура - максимум температуры воздуха на высоте 2 м над землей.
R - Количество осадков - Количество выпавших осадков за период времени, мм. При наведении курсора мыши на число - период времени, за который выпало указанное количество осадков.
R24 - Количество осадков - Количество выпавших осадков за 24 часа, мм.
S - Снежный покров - Высота снежного покрова, см. При наведении курсора мыши на число - состояние снежного покрова и степень покрытия местности в баллах.